Location: Barruelo
(41.2448°N, 3.8231°W)
Time: 17:31:31
(UTC+00:00)

SL-16 R/B - Pass Details

Date: 11 December 2025
Orbit: 841 x 845 km, 71.0° (Epoch: 15 January)

Event Time Altitude Azimuth Distance (km) Brightness Sun altitude
Rises 19:33:22 0° 197° (SSW) 3,381 5.6 -30.5°
Reaches altitude 10° 19:35:48 10° 196° (SSW) 2,451 4.8 -31.0°
Enters shadow 19:38:26 29° 192° (SSW) 1,500 3.6 -31.5°
